Hourly Data Report for October 03, 2016

All times are specified in Local Standard Time (LST). Add 1 hour to adjust for Daylight Saving Time where and when it is observed.

KUGAARUK CLIMATE
NUNAVUT

68°32'15.060" N
89°47'47.020" W
15.80 m
2303094
71407
NBB

Download Data

Hourly Data (October 2016)
Hourly Data Report for October 3, 2016
Temp Definition
°C
Dew Point Temp Definition
°C
Rel Hum Definition
%
Wind Dir Definition
10's deg

Wind Spd Definition
km/h
Visibility Definition
km
Stn Press Definition
kPa
Hmdx Definition


Wind Chill Definition


Weather Definition


TIME
00:00 -2.1 -4.4 84 24 27   101.28   -9 LegendNANA
01:00 -2.1 -4.3 85 22 21   101.19   -8 LegendNANA
02:00 -2.3 -4.3 86 22 18   101.09   -8 LegendNANA
03:00 -2.3 -4.5 84 24 31   100.93   -10 LegendNANA
04:00 -2.2 -4.7 83 24 25   100.86   -9 LegendNANA
05:00 -2.5 -4.9 83 23 12   100.78   -7 LegendNANA
06:00 -2.9 -5.2 84 17 10   100.68   -7 LegendNANA
07:00 -2.8 -5.1 84 18 10   100.59   -7 LegendNANA
08:00 -2.9 -5.4 82 15 9   100.50   -6 LegendNANA
09:00 -2.8 -5.2 83 14 9   100.41   -6 LegendNANA
10:00 -2.8 -5.5 82 13 6   100.31   -5 LegendNANA
11:00 -2.5 -5.2 81 9 8   100.19   -6 LegendNANA
12:00 -2.3 -4.9 82 11 13   100.10   -7 LegendNANA
13:00 -2.4 -5.1 82 11 11   100.02   -6 LegendNANA
14:00 -2.8 -4.3 89 7 11   99.94   -7 LegendNANA
15:00 -2.9 -3.8 93 5 12   99.87   -7 LegendNANA
16:00 -2.8 -3.6 94 5 13   99.82   -7 LegendNANA
17:00 -3.1 -3.8 95 5 14   99.78   -8 LegendNANA
18:00 -3.1 -3.9 95 6 16   99.73   -8 LegendNANA
19:00 -2.9 -3.7 95 4 16   99.70   -8 LegendNANA
20:00 -2.7 -3.4 95 2 22   99.67   -9 LegendNANA
21:00 -2.6 -3.3 95 2 24   99.63   -9 LegendNANA
22:00 -2.3 -3.1 94 2 29   99.62   -9 LegendNANA
23:00 -2.5 -3.2 95 2 23   99.65   -9 LegendNANA

Notes on Data Quality.

Legend

  • E = Estimated
  • M = Missing
  • NA = Not Available
  • ‡ = Partner data that is not subject to review by the National Climate Archives
Date modified: